QPF
0.00 0.00 0.00 0.00 0.00 0.00 0.00 0.00 0.00 0.00 0.00 0.00 0.00 0.00 0.00 0.00 0.00 0.00 0.00 0.00 0.00 0.00 0.00 0.00 0.00 0.00 0.00 0.00 0.00 0.00 0.00 0.00 0.00 0.00 0.00 0.00 0.00 0.00 0.00 0.00 0.00 0.00 0.00 0.00 0.00 0.00 0.00 0.00 0.00 0.00 0.00 0.00 0.00 0.00 0.00 0.00 0.00 0.00 0.00 0.00 0.00 0.00 0.00 0.00 0.00 0.00 0.00 0.00 0.00 0.00 0.00 0.00 0.00 0.00
0.00 0.00 0.00 0.00 0.00 0.00 0.00 0.00 0.00 0.00 0.00 0.00 0.00 0.00 0.00 0.00 0.00 0.00 0.00 0.00 0.00 0.00 0.00 0.00 0.00 0.00 0.00 0.00 0.00 0.00 0.00 0.00 0.00 0.00 0.00 0.00 0.00 0.00 0.00 0.00 0.00 0.00 0.00 0.00 0.00 0.00 0.00 0.00 0.00 0.00 0.00 0.00 0.00 0.00 0.00 0.00 0.00 0.00 0.00 0.00 0.00 0.00 0.00 0.00 0.00 0.00 0.00 0.00 0.00 0.00 0.00 0.00 0.00 0.00
0.00 0.00 0.00 0.00 0.00 0.00 0.00 0.00 0.00 0.00 0.00 0.00 0.00 0.00 0.00 0.00 0.00 0.00 0.00 0.00 0.00 0.00 0.00 0.00 0.00 0.00 0.00 0.00 0.00 0.00 0.00 0.00 0.00 0.00 0.00 0.00 0.00 0.00 0.00 0.00 0.00 0.00 0.00 0.00 0.00 0.00 0.00 0.00 0.00 0.00 0.00 0.00 0.00 0.00 0.00 0.00 0.00 0.00 0.00 0.00 0.00 0.00 0.00 0.00 0.00 0.00 0.00 0.00 0.00 0.00 0.00 0.00 0.00 0.00
0.00 0.00 0.00 0.00 0.00 0.00 0.00 0.00 0.00 0.00 0.00 0.00 0.00 0.00 0.00 0.00 0.00 0.00 0.00 0.00 0.00 0.00 0.00 0.00 0.00 0.00 0.00 0.00 0.00 0.00 0.00 0.00 0.00 0.00 0.00 0.00 0.00 0.00 0.00 0.00 0.00 0.00 0.00 0.00 0.00 0.00 0.00 0.00 0.00 0.00 0.00 0.00 0.00 0.00 0.00 0.00 0.00 0.00 0.00 0.00 0.00 0.00 0.00 0.00 0.00 0.00 0.00 0.00 0.00 0.00 0.00 0.00 0.00 0.00
0.00 0.00 0.00 0.00 0.00 0.00 0.00 0.00 0.00 0.00 0.00 0.00 0.00 0.00 0.00 0.00 0.00 0.00 0.00 0.00 0.00 0.00 0.00 0.00 0.00 0.00 0.00 0.00 0.00 0.00 0.00 0.00 0.00 0.00 0.00 0.00 0.00 0.00 0.00 0.00 0.00 0.00 0.00 0.00 0.00 0.00 0.00 0.00 0.00 0.00 0.00 0.00 0.00 0.00 0.00 0.00 0.00 0.00 0.00 0.00 0.00 0.00 0.00 0.00 0.00 0.00 0.00 0.00 0.00 0.00 0.00 0.00 0.00 0.00
0.00 0.00 0.00 0.00 0.00 0.00 0.00 0.00 0.00 0.00 0.00 0.00 0.00 0.00 0.00 0.00 0.00 0.00 0.00 0.00 0.00 0.00 0.00 0.00 0.00 0.00 0.00 0.00 0.00 0.00 0.00 0.00 0.00 0.00 0.00 0.00 0.00 0.00 0.00 0.00 0.00 0.00 0.00 0.00 0.00 0.00 0.00 0.00 0.00 0.00 0.00 0.00 0.00 0.00 0.00 0.00 0.00 0.00 0.00 0.00 0.00 0.00 0.00 0.00 0.00 0.00 0.00 0.00 0.00 0.00 0.00 0.00 0.00 0.00
0.00 0.00 0.00 0.00 0.00 0.00 0.00 0.00 0.00 0.00 0.00 0.00 0.00 0.00 0.00 0.00 0.00 0.00 0.00 0.00 0.00 0.00 0.00 0.00 0.00 0.00 0.00 0.00 0.00 0.00 0.00 0.00 0.00 0.00 0.00 0.00 0.00 0.00 0.00 0.00 0.00 0.00 0.00 0.00 0.00 0.00 0.00 0.00 0.00 0.00 0.00 0.00 0.00 0.00 0.00 0.00 0.00 0.00 0.00 0.00 0.00 0.00 0.00 0.00 0.00 0.00 0.00 0.00 0.00 0.00 0.00 0.00 0.00 0.00
0.00 0.00 0.00 0.00 0.00 0.00 0.00 0.00 0.00 0.00 0.00 0.00 0.00 0.00 0.00 0.00 0.00 0.00 0.00 0.00 0.00 0.00 0.00 0.00 0.00 0.00 0.00 0.00 0.00 0.00 0.00 0.00 0.00 0.00 0.00 0.00 0.00 0.00 0.00 0.00 0.00 0.00 0.00 0.00 0.00 0.00 0.00 0.00 0.00 0.00 0.00 0.00 0.00 0.00 0.01 0.00 0.00 0.00 0.00 0.00 0.00 0.00 0.00 0.00 0.00 0.00 0.00 0.00 0.00 0.00 0.00 0.00 0.00 0.00
0.00 0.00 0.00 0.00 0.00 0.00 0.00 0.00 0.00 0.00 0.00 0.00 0.00 0.00 0.00 0.00 0.00 0.00 0.00 0.00 0.00 0.00 0.00 0.00 0.00 0.00 0.00 0.00 0.00 0.00 0.00 0.00 0.00 0.00 0.00 0.00 0.00 0.00 0.00 0.00 0.00 0.00 0.00 0.00 0.00 0.00 0.00 0.00 0.00 0.00 0.00 0.00 0.00 0.00 0.00 0.00 0.00 0.00 0.00 0.00 0.00 0.00 0.00 0.00 0.00 0.00 0.00 0.00 0.00 0.00 0.00 0.00 0.00 0.00
0.00 0.00 0.00 0.00 0.00 0.00 0.00 0.00 0.00 0.00 0.00 0.00 0.00 0.00 0.00 0.00 0.00 0.00 0.00 0.00 0.00 0.00 0.00 0.00 0.00 0.00 0.00 0.00 0.00 0.00 0.00 0.00 0.00 0.00 0.00 0.00 0.00 0.00 0.00 0.00 0.00 0.00 0.00 0.00 0.00 0.00 0.00 0.00 0.00 0.00 0.00 0.00 0.00 0.00 0.00 0.00 0.00 0.00 0.00 0.00 0.01 0.03 0.01 0.00 0.00 0.00 0.00 0.00 0.00 0.00 0.00 0.00 0.00 0.00
0.00 0.00 0.00 0.00 0.00 0.00 0.00 0.00 0.00 0.00 0.00 0.00 0.00 0.00 0.00 0.00 0.00 0.00 0.00 0.00 0.00 0.00 0.00 0.00 0.00 0.00 0.00 0.00 0.00 0.00 0.00 0.00 0.00 0.00 0.00 0.00 0.00 0.00 0.00 0.00 0.00 0.00 0.00 0.00 0.00 0.00 0.00 0.00 0.00 0.00 0.00 0.00 0.00 0.00 0.00 0.00 0.00 0.00 0.00 0.00 0.00 0.00 0.00 0.00 0.00 0.00 0.00 0.00 0.00 0.00 0.00 0.00 0.00 0.00
0.00 0.00 0.00 0.00 0.00 0.00 0.00 0.00 0.00 0.00 0.00 0.00 0.00 0.00 0.00 0.00 0.00 0.00 0.00 0.00 0.00 0.00 0.00 0.00 0.00 0.00 0.00 0.00 0.00 0.00 0.00 0.00 0.00 0.00 0.00 0.01 0.01 0.00 0.00 0.00 0.00 0.00 0.00 0.00 0.00 0.00 0.00 0.00 0.01 0.00 0.02 0.00 0.01 0.00 0.01 0.00 0.00 0.00 0.00 0.00 0.00 0.00 0.00 0.00 0.00 0.01 0.00 0.00 0.00 0.00 0.00 0.00 0.00 0.00
0.00 0.00 0.00 0.00 0.00 0.00 0.00 0.00 0.00 0.00 0.00 0.01 0.00 0.00 0.00 0.00 0.00 0.00 0.00 0.00 0.00 0.00 0.00 0.00 0.00 0.00 0.00 0.00 0.00 0.00 0.00 0.00 0.00 0.00 0.00 0.00 0.00 0.00 0.00 0.00 0.00 0.00 0.00 0.00 0.00 0.00 0.00 0.00 0.01 0.00 0.00 0.00 0.00 0.00 0.00 0.00 0.00 0.00 0.00 0.00 0.00 0.00 0.00 0.00 0.00 0.00 0.00 0.00 0.00 0.00 0.00 0.00 0.00 0.00
0.00 0.00 0.00 0.00 0.00 0.00 0.00 0.00 0.01 0.01 0.00 0.00 0.00 0.00 0.00 0.00 0.00 0.00 0.00 0.00 0.00 0.00 0.00 0.00 0.00 0.00 0.00 0.00 0.00 0.01 0.01 0.00 0.00 0.00 0.00 0.00 0.00 0.00 0.00 0.00 0.00 0.00 0.00 0.00 0.00 0.01 0.00 0.00 0.01 0.00 0.00 0.00 0.00 0.00 0.00 0.00 0.00 0.00 0.00 0.00 0.00 0.00 0.00 0.00 0.00 0.00 0.00 0.00 0.00 0.00 0.00 0.00 0.00 0.00
0.00 0.00 0.00 0.00 0.00 0.00 0.00 0.01 0.01 0.01 0.01 0.00 0.00 0.00 0.00 0.00 0.00 0.00 0.00 0.00 0.00 0.00 0.00 0.00 0.00 0.00 0.00 0.00 0.00 0.00 0.00 0.00 0.00 0.00 0.00 0.00 0.00 0.00 0.01 0.02 0.01 0.01 0.00 0.01 0.00 0.00 0.00 0.00 0.00 0.00 0.00 0.00 0.00 0.00 0.00 0.00 0.00 0.00 0.00 0.00 0.00 0.00 0.00 0.00 0.00 0.00 0.00 0.00 0.00 0.00 0.00 0.00 0.00 0.00
0.00 0.00 0.00 0.01 0.03 0.00 0.01 0.00 0.01 0.01 0.00 0.00 0.00 0.00 0.00 0.00 0.00 0.00 0.00 0.00 0.00 0.00 0.00 0.00 0.00 0.01 0.01 0.01 0.01 0.00 0.00 0.00 0.00 0.00 0.00 0.00 0.00 0.00 0.00 0.01 0.01 0.01 0.00 0.00 0.00 0.00 0.00 0.00 0.00 0.00 0.00 0.00 0.00 0.00 0.00 0.00 0.00 0.00 0.00 0.00 0.00 0.00 0.00 0.00 0.00 0.00 0.00 0.00 0.00 0.00 0.00 0.00 0.00 0.00
0.00 0.00 0.00 0.00 0.00 0.00 0.00 0.00 0.00 0.01 0.00 0.00 0.00 0.00 0.00 0.00 0.00 0.00 0.00 0.00 0.00 0.00 0.00 0.00 0.01 0.01 0.01 0.00 0.00 0.00 0.00 0.00 0.00 0.00 0.00 0.00 0.00 0.00 0.01 0.00 0.01 0.01 0.01 0.00 0.00 0.00 0.00 0.00 0.00 0.00 0.00 0.00 0.00 0.00 0.00 0.00 0.00 0.00 0.00 0.00 0.00 0.00 0.00 0.00 0.00 0.00 0.00 0.00 0.00 0.00 0.00 0.00 0.00 0.00
0.00 0.00 0.00 0.00 0.00 0.00 0.00 0.00 0.00 0.01 0.01 0.01 0.00 0.00 0.00 0.01 0.00 0.00 0.00 0.00 0.00 0.00 0.00 0.00 0.01 0.00 0.00 0.00 0.00 0.00 0.00 0.00 0.00 0.00 0.00 0.00 0.01 0.01 0.01 0.01 0.00 0.00 0.00 0.00 0.00 0.00 0.00 0.00 0.00 0.00 0.00 0.00 0.00 0.00 0.00 0.00 0.00 0.00 0.00 0.00 0.00 0.00 0.00 0.00 0.00 0.00 0.00 0.00 0.00 0.00 0.00 0.00 0.00 0.00
0.00 0.00 0.00 0.00 0.02 0.00 0.00 0.00 0.00 0.01 0.00 0.00 0.00 0.00 0.00 0.01 0.00 0.00 0.00 0.00 0.00 0.00 0.00 0.01 0.00 0.00 0.00 0.00 0.00 0.00 0.00 0.00 0.00 0.00 0.00 0.00 0.00 0.00 0.00 0.00 0.00 0.00 0.00 0.00 0.00 0.00 0.00 0.00 0.00 0.00 0.00 0.00 0.00 0.00 0.00 0.00 0.00 0.00 0.00 0.00 0.00 0.00 0.00 0.00 0.00 0.00 0.00 0.00 0.00 0.00 0.00 0.00 0.00 0.00
0.00 0.00 0.00 0.00 0.00 0.00 0.08 0.04 0.01 0.00 0.00 0.00 0.00 0.00 0.00 0.00 0.00 0.00 0.00 0.00 0.00 0.00 0.00 0.00 0.00 0.00 0.00 0.00 0.00 0.00 0.00 0.00 0.00 0.00 0.00 0.00 0.00 0.00 0.00 0.00 0.00 0.00 0.00 0.00 0.00 0.00 0.00 0.00 0.00 0.00 0.00 0.00 0.00 0.00 0.00 0.00 0.00 0.00 0.00 0.00 0.00 0.00 0.00 0.00 0.00 0.00 0.00 0.00 0.00 0.00 0.00 0.00 0.00 0.00
0.00 0.00 0.00 0.00 0.00 0.00 0.00 0.00 0.00 0.00 0.00 0.00 0.00 0.00 0.00 0.00 0.00 0.00 0.00 0.00 0.00 0.00 0.00 0.00 0.00 0.00 0.00 0.00 0.00 0.00 0.00 0.00 0.00 0.00 0.00 0.00 0.00 0.00 0.00 0.00 0.00 0.00 0.00 0.00 0.00 0.00 0.00 0.00 0.00 0.00 0.00 0.00 0.00 0.00 0.00 0.00 0.00 0.00 0.00 0.00 0.00 0.00 0.00 0.00 0.00 0.00 0.00 0.00 0.00 0.00 0.00 0.00 0.00 0.00
0.00 0.00 0.00 0.00 0.00 0.00 0.00 0.00 0.00 0.00 0.00 0.00 0.00 0.00 0.00 0.00 0.00 0.00 0.00 0.00 0.00 0.00 0.00 0.00 0.00 0.00 0.00 0.00 0.00 0.00 0.00 0.00 0.00 0.00 0.00 0.00 0.00 0.00 0.00 0.00 0.00 0.00 0.00 0.00 0.00 0.00 0.00 0.00 0.00 0.00 0.00 0.00 0.00 0.00 0.00 0.00 0.00 0.00 0.00 0.00 0.00 0.00 0.00 0.00 0.00 0.00 0.00 0.00 0.00 0.00 0.00 0.00 0.00 0.00
0.00 0.00 0.00 0.00 0.00 0.00 0.00 0.02 0.04 0.04 0.01 0.00 0.00 0.00 0.00 0.00 0.00 0.00 0.00 0.00 0.00 0.00 0.00 0.00 0.00 0.00 0.00 0.00 0.00 0.00 0.00 0.00 0.00 0.00 0.00 0.00 0.00 0.00 0.00 0.00 0.00 0.00 0.00 0.00 0.00 0.00 0.00 0.00 0.00 0.00 0.00 0.00 0.00 0.00 0.00 0.00 0.00 0.00 0.00 0.00 0.00 0.00 0.00 0.00 0.00 0.00 0.00 0.00 0.00 0.00 0.00 0.00 0.00 0.00
0.00 0.00 0.00 0.00 0.00 0.00 0.00 0.01 0.01 0.01 0.01 0.00 0.00 0.00 0.00 0.00 0.00 0.00 0.00 0.00 0.00 0.00 0.00 0.00 0.00 0.00 0.00 0.00 0.00 0.00 0.00 0.00 0.00 0.00 0.00 0.00 0.00 0.00 0.00 0.00 0.00 0.00 0.00 0.00 0.00 0.00 0.00 0.00 0.00 0.00 0.00 0.00 0.00 0.00 0.00 0.00 0.00 0.00 0.00 0.00 0.00 0.00 0.00 0.00 0.00 0.00 0.00 0.00 0.00 0.00 0.00 0.00 0.00 0.00
0.00 0.00 0.00 0.01 0.00 0.00 0.00 0.01 0.01 0.00 0.00 0.00 0.00 0.00 0.00 0.00 0.00 0.00 0.00 0.00 0.00 0.00 0.00 0.00 0.00 0.00 0.00 0.00 0.00 0.00 0.00 0.00 0.00 0.00 0.00 0.00 0.00 0.00 0.00 0.00 0.00 0.00 0.00 0.00 0.00 0.00 0.00 0.00 0.00 0.00 0.00 0.00 0.00 0.00 0.00 0.00 0.00 0.00 0.00 0.00 0.00 0.00 0.00 0.00 0.00 0.00 0.00 0.00 0.00 0.00 0.00 0.00 0.00 0.00
0.00 0.00 0.00 0.00 0.00 0.00 0.00 0.00 0.00 0.00 0.00 0.00 0.00 0.00 0.00 0.00 0.00 0.00 0.00 0.00 0.00 0.00 0.00 0.00 0.00 0.00 0.00 0.00 0.00 0.00 0.00 0.00 0.00 0.00 0.00 0.00 0.00 0.00 0.00 0.00 0.00 0.00 0.00 0.00 0.00 0.00 0.00 0.00 0.00 0.00 0.00 0.00 0.00 0.00 0.00 0.00 0.00 0.00 0.00 0.00 0.00 0.00 0.00 0.00 0.00 0.00 0.00 0.00 0.00 0.00 0.00 0.00 0.00 0.00
0.00 0.00 0.00 0.00 0.00 0.00 0.00 0.00 0.00 0.00 0.00 0.00 0.00 0.00 0.00 0.00 0.00 0.00 0.00 0.00 0.00 0.00 0.00 0.00 0.00 0.00 0.00 0.00 0.00 0.00 0.00 0.00 0.00 0.00 0.00 0.00 0.00 0.00 0.00 0.00 0.00 0.00 0.00 0.00 0.00 0.00 0.00 0.00 0.00 0.00 0.00 0.00 0.00 0.00 0.00 0.00 0.00 0.00 0.00 0.00 0.00 0.00 0.00 0.00 0.00 0.00 0.00 0.00 0.00 0.00 0.00 0.00 0.00 0.00
0.00 0.00 0.00 0.00 0.00 0.00 0.00 0.00 0.00 0.00 0.00 0.00 0.00 0.00 0.00 0.00 0.00 0.00 0.00 0.00 0.00 0.00 0.00 0.00 0.00 0.00 0.00 0.00 0.00 0.00 0.00 0.00 0.00 0.00 0.00 0.00 0.00 0.00 0.00 0.00 0.00 0.00 0.00 0.00 0.00 0.00 0.00 0.00 0.00 0.00 0.00 0.00 0.00 0.00 0.00 0.00 0.00 0.00 0.00 0.00 0.00 0.00 0.00 0.00 0.00 0.00 0.00 0.00 0.00 0.00 0.00 0.00 0.00 0.00
0.01 0.00 0.01 0.01 0.00 0.00 0.00 0.00 0.00 0.00 0.00 0.00 0.00 0.00 0.00 0.00 0.00 0.00 0.00 0.00 0.00 0.00 0.00 0.00 0.00 0.00 0.00 0.00 0.00 0.00 0.00 0.00 0.00 0.00 0.00 0.00 0.00 0.00 0.00 0.00 0.00 0.00 0.00 0.00 0.00 0.00 0.00 0.00 0.00 0.00 0.00 0.00 0.00 0.00 0.00 0.00 0.00 0.00 0.00 0.00 0.00 0.00 0.00 0.00 0.00 0.00 0.00 0.00 0.00 0.00 0.00 0.00 0.00 0.00
0.00 0.01 0.01 0.01 0.00 0.00 0.00 0.00 0.00 0.00 0.00 0.00 0.00 0.00 0.00 0.00 0.00 0.00 0.00 0.00 0.00 0.00 0.00 0.00 0.00 0.00 0.00 0.00 0.00 0.00 0.00 0.00 0.00 0.00 0.00 0.00 0.00 0.00 0.00 0.00 0.00 0.00 0.00 0.00 0.00 0.00 0.00 0.00 0.00 0.00 0.00 0.00 0.00 0.00 0.00 0.00 0.00 0.00 0.00 0.00 0.00 0.00 0.00 0.00 0.00 0.00 0.00 0.00 0.00 0.00 0.00 0.00 0.00 0.00
0.02 0.01 0.00 0.00 0.00 0.00 0.00 0.00 0.00 0.00 0.00 0.00 0.00 0.00 0.00 0.00 0.00 0.00 0.00 0.00 0.00 0.00 0.00 0.00 0.00 0.00 0.00 0.00 0.00 0.00 0.00 0.00 0.00 0.00 0.00 0.00 0.00 0.00 0.00 0.00 0.00 0.00 0.00 0.00 0.00 0.00 0.00 0.00 0.00 0.00 0.00 0.00 0.00 0.00 0.00 0.00 0.00 0.00 0.00 0.00 0.00 0.00 0.00 0.00 0.00 0.00 0.01 0.00 0.00 0.00 0.00 0.00 0.00 0.00
0.02 0.01 0.00 0.00 0.00 0.00 0.00 0.00 0.00 0.00 0.00 0.00 0.00 0.00 0.00 0.00 0.00 0.00 0.00 0.00 0.00 0.00 0.00 0.00 0.00 0.00 0.00 0.00 0.00 0.00 0.00 0.00 0.00 0.00 0.00 0.00 0.00 0.00 0.00 0.00 0.00 0.00 0.00 0.00 0.00 0.00 0.00 0.00 0.00 0.00 0.00 0.00 0.00 0.00 0.00 0.00 0.00 0.00 0.00 0.00 0.00 0.00 0.00 0.00 0.00 0.00 0.00 0.01 0.00 0.00 0.00 0.00 0.00 0.00
0.01 0.00 0.00 0.00 0.00 0.00 0.00 0.00 0.01 0.00 0.02 0.00 0.00 0.00 0.00 0.00 0.00 0.02 0.00 0.00 0.00 0.00 0.00 0.00 0.00 0.00 0.00 0.00 0.00 0.00 0.00 0.00 0.00 0.00 0.00 0.00 0.00 0.00 0.00 0.00 0.00 0.00 0.00 0.00 0.00 0.00 0.00 0.00 0.00 0.00 0.00 0.00 0.00 0.00 0.00 0.00 0.00 0.00 0.00 0.00 0.00 0.00 0.00 0.00 0.00 0.00 0.00 0.01 0.01 0.00 0.00 0.00 0.00 0.00
0.03 0.01 0.00 0.00 0.00 0.00 0.00 0.00 0.00 0.00 0.00 0.00 0.00 0.00 0.00 0.01 0.00 0.00 0.00 0.00 0.00 0.00 0.00 0.00 0.00 0.00 0.00 0.00 0.00 0.00 0.00 0.00 0.00 0.00 0.00 0.00 0.00 0.00 0.00 0.00 0.00 0.00 0.00 0.00 0.00 0.00 0.00 0.00 0.00 0.00 0.00 0.00 0.00 0.00 0.00 0.00 0.00 0.00 0.00 0.00 0.00 0.00 0.00 0.00 0.00 0.00 0.01 0.00 0.00 0.00 0.00 0.00 0.00 0.00
0.02 0.05 0.08 0.02 0.00 0.00 0.00 0.02 0.03 0.00 0.00 0.00 0.00 0.00 0.00 0.00 0.00 0.00 0.00 0.00 0.00 0.00 0.00 0.00 0.00 0.00 0.00 0.00 0.00 0.00 0.00 0.00 0.00 0.00 0.00 0.00 0.00 0.00 0.00 0.00 0.00 0.00 0.00 0.00 0.00 0.00 0.00 0.00 0.00 0.00 0.00 0.00 0.00 0.00 0.00 0.00 0.00 0.00 0.00 0.00 0.00 0.00 0.00 0.00 0.00 0.00 0.00 0.00 0.00 0.00 0.00 0.00 0.00 0.00
0.07 0.02 0.01 0.01 0.01 0.00 0.00 0.00 0.00 0.01 0.01 0.01 0.01 0.00 0.01 0.00 0.00 0.00 0.00 0.00 0.00 0.00 0.00 0.00 0.00 0.00 0.00 0.00 0.00 0.00 0.00 0.00 0.00 0.00 0.00 0.00 0.00 0.00 0.00 0.00 0.00 0.00 0.00 0.00 0.00 0.00 0.00 0.00 0.00 0.00 0.00 0.00 0.00 0.00 0.00 0.00 0.00 0.00 0.00 0.00 0.00 0.00 0.00 0.00 0.00 0.00 0.00 0.00 0.00 0.00 0.00 0.00 0.00 0.00
0.04 0.03 0.01 0.01 0.01 0.00 0.00 0.00 0.01 0.00 0.00 0.00 0.00 0.00 0.00 0.00 0.00 0.00 0.00 0.00 0.00 0.00 0.00 0.00 0.00 0.00 0.00 0.00 0.00 0.00 0.00 0.00 0.00 0.00 0.00 0.00 0.00 0.00 0.00 0.00 0.00 0.00 0.00 0.00 0.00 0.00 0.00 0.00 0.00 0.00 0.00 0.00 0.00 0.00 0.00 0.00 0.00 0.00 0.00 0.00 0.00 0.00 0.00 0.00 0.00 0.00 0.00 0.00 0.00 0.00 0.00 0.00 0.00 0.00
0.05 0.04 0.03 0.01 0.01 0.01 0.00 0.00 0.00 0.00 0.00 0.00 0.00 0.00 0.00 0.00 0.00 0.00 0.00 0.00 0.00 0.00 0.00 0.00 0.00 0.00 0.00 0.00 0.00 0.00 0.00 0.00 0.00 0.00 0.00 0.00 0.00 0.00 0.00 0.00 0.00 0.00 0.00 0.00 0.00 0.00 0.00 0.00 0.00 0.00 0.00 0.00 0.00 0.00 0.00 0.00 0.00 0.00 0.00 0.00 0.00 0.00 0.00 0.00 0.00 0.00 0.00 0.00 0.00 0.00 0.00 0.00 0.00 0.00
0.04 0.04 0.03 0.02 0.01 0.01 0.00 0.00 0.00 0.00 0.00 0.00 0.00 0.00 0.00 0.00 0.00 0.00 0.00 0.00 0.00 0.00 0.00 0.00 0.00 0.00 0.00 0.00 0.00 0.00 0.00 0.00 0.00 0.00 0.00 0.00 0.00 0.00 0.00 0.00 0.00 0.00 0.00 0.00 0.00 0.00 0.00 0.00 0.00 0.00 0.00 0.00 0.00 0.00 0.00 0.00 0.00 0.00 0.00 0.00 0.00 0.00 0.00 0.00 0.00 0.00 0.00 0.00 0.00 0.00 0.00 0.00 0.00 0.00
0.31 0.04 0.04 0.01 0.03 0.01 0.01 0.00 0.00 0.00 0.00 0.00 0.00 0.00 0.00 0.00 0.00 0.00 0.00 0.00 0.00 0.00 0.00 0.00 0.00 0.00 0.00 0.00 0.00 0.00 0.00 0.00 0.00 0.00 0.00 0.00 0.00 0.00 0.00 0.00 0.00 0.00 0.00 0.00 0.00 0.00 0.00 0.00 0.00 0.00 0.00 0.00 0.00 0.00 0.00 0.00 0.00 0.00 0.00 0.00 0.00 0.00 0.00 0.00 0.00 0.00 0.00 0.00 0.00 0.00 0.00 0.00 0.00 0.00
0.05 0.11 0.08 0.08 0.09 0.04 0.01 0.00 0.00 0.00 0.00 0.00 0.00 0.00 0.00 0.00 0.00 0.00 0.00 0.00 0.00 0.00 0.00 0.00 0.00 0.00 0.00 0.00 0.00 0.00 0.00 0.00 0.00 0.00 0.00 0.00 0.00 0.00 0.00 0.00 0.00 0.00 0.00 0.00 0.00 0.00 0.00 0.00 0.00 0.00 0.00 0.00 0.00 0.00 0.00 0.00 0.00 0.00 0.00 0.00 0.00 0.00 0.00 0.00 0.00 0.00 0.00 0.00 0.00 0.00 0.00 0.00 0.00 0.00
0.02 0.03 0.00 0.03 0.06 0.02 0.01 0.02 0.00 0.00 0.00 0.00 0.00 0.00 0.00 0.00 0.00 0.00 0.00 0.00 0.00 0.00 0.00 0.00 0.00 0.00 0.00 0.00 0.00 0.00 0.00 0.00 0.00 0.00 0.00 0.00 0.00 0.00 0.00 0.00 0.00 0.00 0.00 0.00 0.00 0.00 0.00 0.00 0.00 0.00 0.00 0.00 0.00 0.00 0.00 0.00 0.00 0.00 0.00 0.00 0.00 0.00 0.00 0.00 0.00 0.00 0.00 0.00 0.00 0.00 0.00 0.00 0.00 0.00
0.14 0.04 0.10 0.12 0.02 0.03 0.00 0.00 0.01 0.00 0.00 0.00 0.00 0.00 0.00 0.00 0.00 0.00 0.00 0.00 0.00 0.00 0.00 0.00 0.00 0.00 0.00 0.00 0.00 0.00 0.00 0.00 0.00 0.00 0.00 0.00 0.00 0.00 0.00 0.00 0.00 0.00 0.00 0.00 0.00 0.00 0.00 0.00 0.00 0.00 0.00 0.00 0.00 0.00 0.00 0.00 0.00 0.00 0.00 0.00 0.00 0.00 0.00 0.00 0.00 0.00 0.00 0.00 0.00 0.00 0.00 0.00 0.01 0.01
0.00 0.00 0.00 0.01 0.01 0.01 0.02 0.00 0.00 0.00 0.00 0.00 0.00 0.00 0.00 0.00 0.00 0.00 0.00 0.00 0.00 0.00 0.00 0.00 0.00 0.00 0.00 0.00 0.00 0.00 0.00 0.00 0.00 0.00 0.00 0.00 0.00 0.00 0.00 0.00 0.00 0.00 0.00 0.00 0.00 0.00 0.00 0.00 0.00 0.00 0.00 0.00 0.00 0.00 0.00 0.00 0.00 0.00 0.00 0.00 0.00 0.00 0.00 0.00 0.00 0.00 0.00 0.00 0.00 0.00 0.00 0.00 0.00 0.00
0.00 0.00 0.00 0.00 0.01 0.00 0.00 0.00 0.00 0.00 0.00 0.00 0.00 0.00 0.00 0.00 0.00 0.00 0.00 0.00 0.00 0.00 0.00 0.00 0.00 0.00 0.00 0.00 0.00 0.00 0.00 0.00 0.00 0.00 0.00 0.00 0.00 0.00 0.00 0.00 0.00 0.00 0.00 0.00 0.00 0.00 0.00 0.00 0.00 0.00 0.00 0.00 0.00 0.00 0.00 0.00 0.00 0.00 0.00 0.00 0.00 0.00 0.00 0.00 0.00 0.00 0.00 0.00 0.00 0.00 0.00 0.00 0.00 0.00
MSLP
1019.19 1019.43 1019.67 1019.91 1019.91 1019.91 1019.95 1020.07 1020.11 1020.27 1020.39 1020.51 1020.67 1020.75 1021.31 1021.71 1022.63 1023.03 1022.99 1022.59 1022.19 1021.51 1020.99 1021.51 1021.19 1020.83 1020.79 1020.83 1020.63 1020.79 1020.79 1020.75 1020.87 1020.79 1020.87 1020.95 1020.99 1021.07 1021.31 1021.39 1021.47 1021.55 1021.59 1021.63 1021.67 1021.67 1021.71 1021.71 1021.71 1021.67 1021.67 1021.63 1021.63 1021.63 1021.63 1021.59 1021.51 1021.47 1021.39 1021.31 1021.23 1021.15 1021.11 1021.11 1021.07 1021.03 1020.99 1020.95 1020.95 1020.87 1020.87 1020.87 1020.87 1020.83
1019.07 1019.23 1019.43 1019.63 1019.83 1019.75 1019.91 1019.99 1019.95 1020.15 1020.35 1020.51 1020.63 1020.71 1020.71 1020.95 1021.87 1022.19 1022.87 1022.55 1021.67 1021.71 1021.15 1020.91 1021.23 1020.99 1020.87 1020.71 1020.79 1020.67 1020.75 1020.83 1020.91 1020.83 1020.83 1020.87 1020.83 1021.03 1021.23 1021.31 1021.35 1021.43 1021.47 1021.47 1021.51 1021.51 1021.55 1021.55 1021.55 1021.51 1021.47 1021.43 1021.39 1021.39 1021.35 1021.35 1021.35 1021.31 1021.27 1021.19 1021.11 1021.03 1020.95 1020.91 1020.87 1020.87 1020.87 1020.83 1020.79 1020.71 1020.67 1020.59 1020.59 1020.59
1018.95 1019.27 1019.51 1019.55 1019.71 1019.63 1019.79 1019.79 1019.83 1019.99 1020.19 1020.35 1020.39 1020.55 1020.67 1020.91 1021.15 1021.59 1021.99 1022.83 1021.63 1021.15 1021.63 1021.03 1020.47 1020.71 1020.75 1020.51 1020.59 1020.63 1020.59 1020.71 1020.75 1020.75 1020.75 1020.75 1020.83 1021.07 1021.03 1021.11 1021.19 1021.27 1021.31 1021.31 1021.35 1021.39 1021.39 1021.43 1021.39 1021.35 1021.31 1021.27 1021.19 1021.15 1021.15 1021.11 1021.07 1021.07 1021.03 1020.99 1020.95 1020.87 1020.79 1020.75 1020.67 1020.63 1020.63 1020.59 1020.55 1020.55 1020.47 1020.39 1020.35 1020.35
1018.79 1019.15 1019.43 1019.51 1019.55 1019.51 1019.63 1019.75 1019.79 1019.91 1019.95 1019.99 1020.23 1020.35 1020.59 1020.79 1020.87 1021.11 1021.67 1022.23 1022.15 1021.23 1021.11 1020.99 1020.87 1020.63 1020.75 1020.63 1020.79 1020.71 1020.59 1020.59 1020.79 1020.67 1020.67 1020.63 1020.87 1020.75 1020.55 1020.79 1020.95 1021.07 1021.11 1021.19 1021.19 1021.23 1021.27 1021.27 1021.27 1021.19 1021.15 1021.11 1021.07 1021.03 1020.99 1020.95 1020.95 1020.95 1020.91 1020.87 1020.87 1020.83 1020.79 1020.71 1020.63 1020.55 1020.43 1020.35 1020.31 1020.23 1020.19 1020.19 1020.15 1020.11
1018.59 1018.87 1019.15 1019.19 1019.19 1019.15 1019.51 1019.55 1019.55 1019.59 1019.75 1019.87 1019.99 1020.15 1020.35 1020.55 1020.63 1020.95 1021.39 1021.83 1021.79 1021.19 1020.75 1020.95 1020.79 1020.63 1020.67 1020.87 1020.59 1020.79 1020.67 1020.63 1020.59 1020.63 1020.51 1020.55 1020.59 1020.55 1020.51 1020.47 1020.67 1020.87 1020.95 1020.99 1020.99 1021.03 1021.11 1021.07 1021.03 1020.99 1020.95 1020.95 1020.95 1020.95 1020.91 1020.91 1020.87 1020.83 1020.83 1020.79 1020.79 1020.75 1020.71 1020.63 1020.51 1020.39 1020.27 1020.15 1020.03 1019.99 1019.95 1019.87 1019.87 1019.83
1018.31 1018.59 1018.91 1018.95 1018.95 1018.91 1019.19 1019.23 1019.39 1019.43 1019.51 1019.71 1019.91 1020.07 1020.19 1020.35 1020.47 1020.35 1020.91 1021.19 1021.43 1021.51 1020.95 1021.03 1020.63 1020.71 1020.51 1020.99 1020.39 1020.71 1020.71 1020.55 1020.43 1020.55 1020.51 1020.43 1020.47 1020.59 1020.47 1020.47 1020.43 1020.63 1020.71 1020.75 1020.79 1020.87 1020.91 1020.91 1020.87 1020.83 1020.83 1020.83 1020.83 1020.83 1020.83 1020.83 1020.83 1020.87 1020.87 1020.83 1020.79 1020.67 1020.59 1020.51 1020.43 1020.31 1020.19 1020.03 1019.87 1019.75 1019.67 1019.63 1019.59 1019.59
1017.99 1018.35 1018.51 1018.55 1018.55 1018.63 1018.99 1019.11 1019.11 1019.15 1019.39 1019.47 1019.75 1019.91 1019.91 1020.15 1020.11 1020.19 1020.31 1020.75 1021.23 1021.27 1021.07 1020.67 1020.79 1020.75 1020.63 1020.75 1020.59 1020.35 1020.35 1020.35 1020.39 1020.63 1020.59 1020.51 1020.47 1020.47 1020.51 1020.43 1020.23 1020.31 1020.47 1020.55 1020.59 1020.67 1020.71 1020.71 1020.75 1020.75 1020.75 1020.75 1020.71 1020.67 1020.67 1020.67 1020.71 1020.75 1020.75 1020.75 1020.71 1020.63 1020.55 1020.47 1020.39 1020.31 1020.15 1020.03 1019.87 1019.67 1019.51 1019.39 1019.31 1019.27
1017.59 1017.87 1018.15 1018.07 1018.07 1018.31 1018.79 1018.91 1019.03 1019.03 1019.19 1019.39 1019.55 1019.63 1019.63 1019.71 1019.83 1019.87 1020.07 1020.27 1020.67 1020.79 1021.15 1020.83 1020.79 1020.51 1020.63 1020.47 1020.27 1020.27 1020.31 1020.43 1020.47 1020.47 1020.47 1020.43 1020.55 1020.43 1020.31 1020.27 1020.19 1020.07 1020.27 1020.39 1020.47 1020.55 1020.55 1020.55 1020.51 1020.51 1020.55 1020.59 1020.63 1020.59 1020.59 1020.55 1020.55 1020.51 1020.47 1020.43 1020.39 1020.43 1020.43 1020.39 1020.35 1020.23 1020.11 1019.99 1019.87 1019.71 1019.51 1019.35 1019.19 1019.07
1017.03 1017.31 1017.47 1017.51 1017.67 1017.99 1018.55 1018.67 1018.79 1018.79 1019.11 1019.11 1019.19 1019.35 1019.35 1019.47 1019.47 1019.59 1019.83 1020.07 1020.23 1020.63 1020.91 1020.71 1020.43 1020.27 1020.35 1020.23 1020.27 1020.27 1020.59 1020.51 1020.47 1020.43 1020.63 1020.59 1020.55 1020.39 1020.11 1019.95 1019.87 1019.99 1020.03 1020.11 1020.15 1020.23 1020.31 1020.31 1020.31 1020.35 1020.35 1020.39 1020.39 1020.39 1020.35 1020.35 1020.35 1020.35 1020.31 1020.27 1020.23 1020.15 1019.99 1019.99 1019.99 1019.99 1019.95 1019.87 1019.75 1019.59 1019.47 1019.31 1019.19 1019.07
1016.43 1016.71 1016.87 1016.95 1017.19 1017.59 1018.03 1018.15 1018.15 1018.31 1018.59 1018.75 1018.87 1018.99 1019.07 1019.15 1019.23 1019.51 1019.67 1019.83 1020.07 1020.31 1020.39 1020.43 1020.51 1020.35 1020.51 1020.51 1020.43 1020.23 1020.39 1020.63 1020.71 1020.63 1020.47 1020.31 1020.23 1020.27 1020.23 1020.03 1019.91 1019.83 1019.79 1019.71 1019.67 1019.83 1019.91 1019.95 1020.07 1020.11 1020.07 1020.11 1020.15 1020.15 1020.11 1020.03 1020.03 1020.03 1020.07 1020.07 1020.07 1019.99 1019.87 1019.83 1019.83 1019.83 1019.75 1019.71 1019.59 1019.43 1019.31 1019.19 1019.11 1018.99
1015.91 1016.11 1016.27 1016.47 1016.63 1016.99 1017.19 1017.39 1017.47 1017.71 1018.11 1018.35 1018.59 1018.75 1018.87 1018.91 1019.15 1019.39 1019.55 1019.71 1019.95 1020.11 1020.27 1020.19 1020.11 1020.23 1020.03 1020.23 1020.59 1020.23 1020.19 1020.43 1020.55 1020.79 1020.75 1020.59 1020.03 1020.07 1020.23 1020.27 1019.87 1019.67 1019.67 1019.59 1019.67 1019.71 1019.71 1019.79 1019.75 1019.75 1019.83 1019.83 1019.83 1019.83 1019.83 1019.79 1019.75 1019.71 1019.71 1019.75 1019.79 1019.79 1019.79 1019.75 1019.71 1019.67 1019.59 1019.47 1019.35 1019.19 1019.07 1018.99 1018.95 1018.87
1015.47 1015.63 1015.71 1015.79 1015.99 1016.23 1016.43 1016.59 1016.75 1017.19 1017.87 1018.03 1018.47 1018.55 1018.67 1018.75 1018.99 1019.15 1019.27 1019.51 1019.67 1019.87 1019.99 1020.03 1020.03 1019.95 1020.07 1020.11 1020.03 1020.03 1020.35 1020.67 1020.63 1020.47 1020.55 1020.79 1020.43 1020.15 1019.99 1019.95 1020.11 1019.87 1019.87 1019.91 1019.59 1019.47 1019.55 1019.51 1019.55 1019.63 1019.59 1019.59 1019.63 1019.59 1019.47 1019.31 1019.27 1019.31 1019.39 1019.47 1019.47 1019.47 1019.55 1019.63 1019.63 1019.55 1019.43 1019.31 1019.19 1019.03 1018.91 1018.83 1018.75 1018.67
1015.15 1015.23 1015.19 1015.27 1015.39 1015.59 1015.79 1016.03 1016.39 1016.71 1016.99 1017.47 1018.03 1018.07 1018.19 1018.47 1018.71 1018.87 1018.99 1019.19 1019.47 1019.63 1019.75 1019.83 1019.67 1019.83 1019.95 1019.91 1020.11 1020.27 1020.43 1020.55 1020.47 1020.27 1020.35 1020.47 1020.15 1020.03 1019.99 1019.75 1019.59 1019.75 1019.83 1019.51 1019.31 1019.31 1019.19 1019.27 1019.27 1019.19 1019.23 1019.11 1019.19 1019.03 1019.03 1018.87 1018.83 1018.95 1019.15 1019.27 1019.31 1019.35 1019.39 1019.39 1019.39 1019.31 1019.19 1019.07 1018.95 1018.79 1018.67 1018.59 1018.55 1018.51
1014.91 1014.83 1014.79 1014.79 1015.07 1015.31 1015.59 1015.95 1016.23 1016.43 1016.71 1016.91 1016.99 1017.43 1017.83 1018.11 1018.43 1018.67 1018.87 1019.07 1019.19 1019.39 1019.63 1019.59 1019.55 1019.75 1019.79 1019.63 1019.71 1019.87 1019.75 1019.75 1019.91 1020.15 1020.23 1020.43 1020.11 1020.07 1020.11 1019.79 1019.51 1019.39 1019.59 1019.63 1019.63 1019.27 1019.03 1019.23 1019.19 1019.11 1019.11 1018.83 1018.87 1018.67 1018.47 1018.35 1018.51 1018.79 1018.99 1019.03 1019.07 1019.11 1019.11 1019.11 1019.07 1018.99 1018.91 1018.79 1018.63 1018.51 1018.43 1018.35 1018.27 1018.23
1014.63 1014.51 1014.51 1014.59 1014.79 1015.15 1015.51 1015.75 1015.95 1016.19 1016.51 1016.75 1016.91 1017.07 1017.27 1017.55 1017.91 1018.31 1018.63 1018.75 1018.79 1019.07 1019.15 1019.03 1019.19 1019.35 1019.47 1019.31 1019.19 1019.47 1019.35 1019.47 1019.67 1019.67 1019.79 1019.95 1020.03 1020.23 1020.47 1020.59 1019.67 1019.27 1019.55 1019.75 1019.79 1019.51 1018.99 1019.15 1019.43 1019.11 1018.99 1018.79 1018.63 1018.43 1018.31 1018.47 1018.67 1018.79 1018.87 1018.87 1018.91 1018.91 1018.83 1018.79 1018.71 1018.63 1018.59 1018.55 1018.47 1018.35 1018.23 1018.15 1018.07 1017.95
1014.07 1014.23 1014.35 1014.39 1014.43 1014.71 1014.95 1015.19 1015.63 1016.03 1016.31 1016.59 1016.75 1016.99 1017.19 1017.39 1017.51 1017.51 1017.79 1018.23 1018.55 1018.63 1018.83 1018.99 1018.95 1019.03 1019.23 1019.15 1019.15 1019.11 1019.11 1019.35 1019.47 1019.55 1019.67 1019.87 1020.07 1020.19 1020.27 1020.15 1020.27 1019.51 1019.39 1019.75 1019.83 1019.63 1018.91 1018.87 1019.11 1019.11 1018.83 1018.55 1018.35 1018.19 1018.35 1018.51 1018.59 1018.63 1018.67 1018.67 1018.67 1018.71 1018.67 1018.59 1018.51 1018.43 1018.35 1018.27 1018.19 1018.15 1018.03 1017.91 1017.79 1017.67
1013.59 1013.83 1014.03 1014.19 1014.27 1014.35 1014.75 1015.03 1015.23 1015.55 1015.99 1016.31 1016.51 1016.75 1017.03 1017.23 1017.35 1017.51 1017.55 1017.47 1017.59 1017.79 1018.27 1018.55 1018.71 1018.75 1018.75 1018.99 1018.91 1018.83 1019.07 1019.11 1019.51 1019.47 1019.59 1019.67 1019.83 1019.91 1020.11 1019.91 1019.75 1019.43 1019.35 1019.71 1019.75 1019.67 1019.11 1018.95 1018.95 1018.87 1018.51 1018.31 1018.19 1018.11 1018.11 1018.35 1018.51 1018.51 1018.47 1018.43 1018.39 1018.31 1018.27 1018.23 1018.23 1018.19 1018.11 1018.03 1017.95 1017.87 1017.83 1017.75 1017.63 1017.51
1013.03 1013.27 1013.55 1013.83 1014.07 1014.11 1014.39 1014.67 1014.91 1015.19 1015.55 1015.91 1016.27 1016.55 1016.71 1016.83 1017.07 1017.39 1017.51 1017.59 1017.63 1017.55 1017.75 1018.03 1018.43 1018.27 1018.23 1018.71 1018.63 1018.67 1018.75 1019.19 1019.35 1019.43 1019.55 1019.47 1019.67 1019.79 1019.79 1019.51 1019.47 1019.23 1019.15 1019.67 1019.75 1019.87 1019.15 1018.71 1018.87 1018.91 1018.47 1018.19 1018.11 1018.07 1018.11 1018.31 1018.31 1018.27 1018.27 1018.27 1018.23 1018.11 1018.03 1017.95 1017.91 1017.79 1017.71 1017.63 1017.55 1017.51 1017.43 1017.35 1017.27 1017.19
1012.39 1012.59 1012.83 1013.11 1013.47 1013.71 1013.95 1014.15 1014.43 1014.83 1015.23 1015.55 1015.91 1016.11 1016.31 1016.47 1016.67 1016.95 1017.23 1017.31 1017.31 1017.47 1017.39 1017.55 1017.71 1017.91 1017.99 1018.11 1018.31 1018.51 1018.55 1018.79 1018.91 1018.99 1019.15 1019.27 1019.39 1019.43 1019.31 1019.27 1019.23 1019.15 1018.99 1019.31 1019.63 1019.99 1019.15 1018.67 1018.95 1018.75 1018.39 1018.11 1018.07 1017.91 1017.95 1018.03 1018.07 1018.03 1018.07 1018.03 1017.99 1017.91 1017.83 1017.79 1017.67 1017.59 1017.51 1017.43 1017.31 1017.15 1017.03 1016.91 1016.83 1016.75
1011.79 1011.95 1012.27 1012.63 1012.95 1013.23 1013.51 1013.75 1014.15 1014.43 1014.67 1015.15 1015.63 1015.95 1015.99 1016.15 1016.31 1016.51 1016.59 1016.71 1016.83 1016.91 1017.03 1017.15 1017.31 1017.43 1017.71 1017.99 1018.11 1018.19 1018.27 1018.43 1018.63 1018.79 1018.87 1019.03 1019.35 1019.51 1019.55 1019.59 1019.03 1019.11 1018.59 1019.07 1019.39 1019.59 1019.23 1018.71 1018.95 1018.75 1018.27 1018.11 1018.07 1017.91 1017.79 1017.67 1017.79 1017.79 1017.79 1017.79 1017.71 1017.63 1017.59 1017.47 1017.39 1017.35 1017.27 1017.19 1017.07 1016.95 1016.83 1016.71 1016.59 1016.47
1011.27 1011.47 1011.67 1011.99 1012.35 1012.71 1012.99 1013.31 1013.83 1014.19 1014.51 1014.91 1015.27 1015.59 1015.75 1015.83 1016.03 1016.35 1016.79 1017.07 1017.19 1017.31 1017.39 1017.59 1017.75 1017.95 1018.11 1018.27 1018.43 1018.51 1018.63 1018.59 1018.55 1018.67 1019.03 1019.23 1018.79 1019.23 1019.75 1019.51 1019.27 1019.07 1018.67 1018.67 1018.95 1019.27 1019.31 1018.79 1018.83 1018.75 1018.39 1018.23 1018.11 1017.87 1017.67 1017.43 1017.43 1017.55 1017.55 1017.47 1017.35 1017.23 1017.15 1017.07 1017.03 1016.95 1016.87 1016.79 1016.71 1016.63 1016.55 1016.47 1016.35 1016.27
1010.79 1010.91 1011.19 1011.47 1011.79 1012.19 1012.43 1012.99 1013.59 1013.99 1014.31 1014.59 1014.83 1015.15 1015.51 1015.83 1016.07 1016.35 1016.51 1016.87 1017.31 1017.51 1017.67 1017.87 1017.99 1018.11 1018.23 1018.35 1018.55 1018.63 1018.71 1018.83 1018.79 1018.79 1019.27 1018.79 1018.83 1019.39 1019.35 1019.59 1019.31 1018.87 1018.79 1018.71 1018.79 1019.31 1019.11 1018.75 1018.67 1018.75 1018.35 1018.07 1017.71 1017.51 1017.39 1017.35 1017.27 1017.23 1017.11 1017.03 1016.99 1016.87 1016.79 1016.71 1016.63 1016.51 1016.39 1016.31 1016.27 1016.19 1016.15 1016.07 1016.07 1015.75
1010.43 1010.59 1010.91 1011.23 1011.39 1011.63 1011.95 1012.63 1013.19 1013.75 1014.03 1014.19 1014.31 1014.59 1015.03 1015.51 1015.83 1015.91 1016.11 1016.51 1016.99 1017.35 1017.51 1017.79 1017.99 1018.27 1018.35 1018.31 1018.23 1018.43 1018.71 1018.79 1018.75 1018.59 1018.71 1018.67 1019.03 1019.23 1019.07 1019.07 1019.23 1019.31 1018.79 1018.67 1018.91 1019.43 1018.99 1018.95 1018.59 1018.67 1018.59 1018.39 1017.71 1017.35 1017.35 1017.31 1017.19 1017.03 1016.87 1016.71 1016.51 1016.51 1016.51 1016.39 1016.27 1016.15 1015.99 1015.91 1015.79 1015.75 1015.75 1015.67 1015.71 1015.31
1010.23 1010.27 1010.55 1010.95 1011.23 1011.47 1011.91 1012.35 1012.83 1013.27 1013.55 1013.75 1013.79 1014.03 1014.59 1015.03 1015.47 1015.31 1015.75 1016.07 1016.35 1016.91 1017.19 1017.51 1017.67 1017.75 1017.83 1017.91 1017.99 1018.15 1018.39 1018.51 1018.47 1018.47 1018.55 1018.55 1018.67 1018.99 1019.03 1018.91 1019.07 1019.31 1019.03 1018.55 1018.75 1019.31 1018.95 1018.83 1018.75 1018.47 1018.51 1018.63 1018.23 1017.47 1017.15 1017.07 1017.03 1016.91 1016.75 1016.59 1016.43 1016.19 1016.11 1016.03 1015.79 1015.67 1015.55 1015.47 1015.39 1015.31 1015.31 1015.31 1015.39 1015.07
1009.91 1010.15 1010.23 1010.35 1010.87 1011.31 1011.63 1012.07 1012.51 1012.95 1013.23 1013.27 1013.35 1013.55 1013.91 1014.15 1014.43 1014.87 1015.51 1016.11 1016.31 1016.67 1017.03 1017.35 1017.51 1017.67 1017.75 1017.79 1017.79 1017.87 1017.95 1017.99 1018.07 1018.23 1018.31 1018.31 1018.39 1018.63 1018.79 1018.87 1018.91 1018.83 1018.59 1018.51 1018.87 1019.11 1019.23 1018.91 1018.83 1018.47 1018.27 1018.19 1017.83 1017.59 1017.15 1017.07 1016.87 1016.79 1016.63 1016.51 1016.31 1016.03 1015.87 1015.63 1015.39 1015.15 1014.99 1014.99 1014.91 1014.87 1014.87 1014.87 1014.87 1014.87
1009.27 1009.59 1009.91 1010.15 1010.59 1011.07 1011.47 1011.87 1012.27 1012.59 1012.87 1013.03 1012.99 1013.11 1013.39 1013.83 1014.39 1014.83 1015.15 1015.71 1016.23 1016.59 1016.87 1017.03 1017.27 1017.39 1017.55 1017.59 1017.55 1017.55 1017.67 1017.67 1017.87 1017.95 1018.07 1018.15 1018.15 1018.23 1018.31 1018.71 1019.07 1019.15 1018.91 1018.63 1018.87 1018.99 1019.11 1018.99 1018.67 1018.55 1018.27 1018.15 1017.75 1017.63 1017.43 1017.15 1016.79 1016.47 1016.39 1016.31 1016.19 1015.91 1015.71 1015.43 1015.15 1014.95 1014.79 1014.51 1014.35 1014.31 1014.35 1014.39 1014.35 1014.39
1008.87 1009.23 1009.55 1009.75 1010.43 1010.87 1011.27 1011.75 1012.15 1012.55 1012.75 1012.91 1012.79 1012.99 1013.43 1013.75 1014.19 1014.63 1015.07 1015.63 1016.07 1016.31 1016.51 1016.79 1017.11 1017.35 1017.31 1017.39 1017.47 1017.51 1017.59 1017.59 1017.75 1017.83 1017.87 1017.99 1018.15 1018.27 1018.35 1018.47 1018.59 1018.75 1018.63 1018.55 1018.55 1018.71 1018.91 1018.87 1018.55 1018.51 1018.35 1018.11 1018.07 1017.67 1017.55 1017.27 1016.79 1016.43 1016.31 1016.11 1015.95 1015.67 1015.43 1015.19 1015.03 1014.87 1014.59 1014.43 1014.19 1014.15 1014.07 1013.87 1013.75 1013.71
1008.27 1008.87 1009.19 1009.59 1010.27 1010.75 1011.27 1011.79 1012.23 1012.55 1012.75 1012.55 1012.75 1013.03 1013.31 1013.71 1014.11 1014.39 1014.99 1015.51 1015.75 1016.07 1016.35 1016.75 1016.99 1017.15 1017.03 1017.03 1017.23 1017.35 1017.39 1017.43 1017.75 1017.83 1017.91 1018.03 1018.07 1018.19 1018.27 1018.39 1018.51 1018.51 1018.47 1018.39 1018.35 1018.43 1018.59 1018.67 1018.39 1018.19 1018.15 1018.11 1018.03 1017.87 1017.67 1017.11 1016.83 1016.59 1016.47 1016.03 1015.83 1015.51 1015.19 1015.03 1014.87 1014.67 1014.43 1014.23 1014.03 1013.83 1013.67 1013.39 1013.11 1013.03
1007.71 1008.19 1008.67 1009.31 1009.99 1010.67 1011.31 1011.87 1012.43 1012.83 1012.79 1012.67 1012.83 1012.99 1013.27 1013.59 1013.83 1014.27 1014.71 1015.11 1015.51 1015.91 1016.23 1016.39 1016.59 1016.71 1016.83 1016.83 1016.91 1017.03 1017.27 1017.51 1017.71 1017.91 1017.91 1017.91 1018.03 1018.11 1018.27 1018.39 1018.39 1018.35 1018.31 1018.15 1018.19 1018.23 1018.35 1018.39 1018.27 1018.03 1017.95 1017.79 1017.79 1017.55 1017.51 1017.27 1016.95 1016.63 1016.43 1016.27 1015.87 1015.35 1015.11 1014.83 1014.59 1014.39 1014.19 1013.99 1013.91 1013.75 1013.55 1013.31 1013.03 1012.83
1007.47 1008.07 1008.59 1009.19 1009.99 1010.79 1011.47 1012.03 1012.51 1012.75 1012.99 1012.91 1012.91 1013.07 1013.19 1013.19 1013.39 1013.83 1014.31 1014.83 1015.23 1015.51 1015.67 1015.87 1016.19 1016.27 1016.47 1016.71 1016.87 1017.15 1017.39 1017.63 1017.67 1017.63 1017.75 1017.91 1017.99 1018.07 1018.23 1018.31 1018.19 1017.99 1017.83 1017.87 1017.91 1017.99 1018.11 1018.11 1018.03 1017.95 1017.79 1017.59 1017.47 1017.43 1017.27 1017.15 1016.87 1016.59 1016.35 1016.19 1015.67 1015.11 1014.75 1014.59 1014.43 1014.23 1014.07 1013.87 1013.63 1013.47 1013.11 1012.91 1012.79 1012.71
1007.51 1008.03 1008.51 1009.23 1009.83 1010.47 1011.03 1011.35 1011.95 1012.67 1013.39 1013.51 1013.39 1013.15 1012.91 1012.87 1013.07 1013.39 1013.83 1014.27 1014.67 1014.91 1015.15 1015.43 1015.63 1015.87 1016.15 1016.51 1016.99 1017.27 1017.43 1017.51 1017.39 1017.35 1017.59 1017.71 1017.71 1017.87 1018.03 1018.27 1018.15 1017.87 1017.71 1017.63 1017.59 1017.71 1017.79 1017.79 1017.79 1017.71 1017.67 1017.39 1017.19 1017.19 1017.07 1017.03 1016.87 1016.51 1016.11 1015.75 1015.51 1015.55 1014.83 1014.51 1014.23 1013.99 1013.79 1013.59 1013.43 1013.15 1012.79 1012.47 1012.19 1012.11
1007.19 1007.99 1008.75 1009.43 1010.03 1010.55 1010.87 1011.31 1012.11 1012.91 1013.19 1013.07 1012.99 1012.95 1012.95 1013.07 1013.15 1013.31 1013.67 1014.07 1014.23 1014.43 1014.63 1014.95 1015.31 1015.79 1016.23 1016.59 1016.67 1016.75 1016.91 1016.91 1017.03 1017.19 1017.39 1017.55 1017.67 1017.71 1017.91 1018.11 1017.95 1017.67 1017.59 1017.59 1017.51 1017.47 1017.55 1017.51 1017.51 1017.39 1017.31 1017.27 1017.27 1017.03 1016.91 1016.83 1016.67 1016.35 1015.95 1015.59 1015.31 1014.99 1014.67 1014.47 1014.11 1013.79 1013.55 1013.55 1013.43 1013.11 1012.71 1012.35 1011.95 1011.63
1007.15 1007.95 1008.59 1009.23 1009.83 1010.07 1010.39 1011.07 1011.91 1012.55 1012.91 1013.03 1013.03 1013.11 1013.23 1013.31 1013.43 1013.59 1013.87 1014.19 1014.23 1014.35 1014.67 1015.03 1015.35 1015.67 1015.95 1016.15 1016.27 1016.39 1016.55 1016.75 1016.87 1017.03 1017.35 1017.55 1017.67 1017.71 1017.83 1017.87 1017.67 1017.63 1017.59 1017.47 1017.47 1017.43 1017.31 1017.19 1017.15 1017.07 1016.95 1016.83 1016.83 1016.87 1016.87 1016.67 1016.23 1015.95 1015.75 1015.47 1015.31 1015.07 1014.67 1014.31 1014.07 1013.79 1013.59 1013.51 1013.27 1012.87 1012.51 1012.07 1011.59 1011.31
1006.67 1007.35 1008.03 1008.67 1009.07 1009.47 1009.95 1010.71 1011.55 1012.11 1012.39 1012.79 1013.03 1013.11 1013.11 1013.11 1013.15 1013.31 1013.59 1013.67 1013.79 1014.07 1014.39 1014.67 1014.99 1015.31 1015.55 1015.83 1015.95 1016.11 1016.23 1016.43 1016.63 1016.91 1017.23 1017.47 1017.55 1017.71 1017.63 1017.55 1017.43 1017.39 1017.47 1017.43 1017.31 1017.23 1017.15 1017.07 1016.91 1016.67 1016.43 1016.31 1016.23 1016.31 1016.35 1016.31 1016.07 1015.79 1015.59 1015.47 1015.31 1015.07 1014.63 1014.31 1013.99 1013.79 1013.63 1013.39 1013.15 1012.79 1012.23 1011.67 1011.27 1011.03
1006.07 1006.75 1007.63 1008.23 1008.51 1008.71 1009.23 1010.03 1010.71 1011.39 1011.95 1012.35 1012.55 1012.75 1012.83 1012.75 1012.71 1012.91 1013.11 1013.27 1013.47 1013.87 1014.19 1014.39 1014.59 1014.87 1015.15 1015.35 1015.51 1015.71 1015.87 1016.07 1016.39 1016.79 1017.07 1017.15 1017.39 1017.39 1017.27 1017.31 1017.19 1017.27 1017.27 1017.19 1017.11 1016.99 1017.03 1016.91 1016.71 1016.39 1016.11 1015.95 1015.79 1015.43 1015.43 1015.59 1015.75 1015.63 1015.47 1015.31 1015.11 1014.99 1014.67 1014.31 1014.03 1013.67 1013.51 1013.19 1012.87 1012.63 1012.03 1011.47 1010.99 1010.59
1005.75 1006.15 1006.83 1007.39 1007.67 1007.95 1008.59 1009.35 1010.07 1010.75 1011.27 1011.75 1012.07 1012.31 1012.47 1012.19 1011.99 1012.43 1012.63 1012.87 1013.19 1013.51 1013.83 1014.07 1014.35 1014.63 1014.83 1014.99 1015.11 1015.27 1015.47 1015.79 1016.07 1016.39 1016.75 1016.91 1016.95 1016.99 1016.99 1017.03 1017.07 1017.07 1017.03 1016.99 1016.91 1016.75 1016.79 1016.71 1016.51 1016.39 1016.27 1015.99 1015.83 1015.55 1015.11 1015.07 1015.39 1015.43 1015.59 1015.31 1014.99 1014.83 1014.55 1014.27 1013.99 1013.71 1013.35 1012.95 1012.67 1012.47 1012.07 1011.39 1010.75 1010.27
1005.39 1005.99 1006.35 1006.55 1006.63 1006.91 1007.59 1008.35 1009.27 1010.11 1010.67 1011.11 1011.47 1011.63 1011.63 1011.59 1011.59 1011.79 1012.19 1012.75 1012.95 1013.19 1013.35 1013.63 1013.99 1014.27 1014.51 1014.63 1014.83 1015.07 1015.27 1015.67 1015.87 1016.11 1016.35 1016.47 1016.67 1016.75 1016.87 1016.83 1016.87 1016.91 1016.87 1016.75 1016.67 1016.59 1016.55 1016.47 1016.31 1016.23 1016.23 1016.07 1016.03 1015.79 1015.35 1014.87 1015.19 1015.27 1015.27 1015.11 1014.87 1014.55 1014.39 1014.15 1013.87 1013.47 1013.03 1012.79 1012.47 1012.15 1011.79 1011.35 1010.67 1010.03
1004.99 1005.79 1006.23 1006.15 1006.15 1006.19 1006.63 1007.59 1008.71 1009.71 1010.27 1010.63 1010.83 1011.03 1010.95 1010.83 1011.07 1011.63 1012.19 1012.63 1012.87 1012.95 1013.31 1013.55 1013.67 1013.99 1014.15 1014.35 1014.59 1014.79 1015.07 1015.31 1015.51 1015.87 1016.07 1016.23 1016.51 1016.59 1016.59 1016.55 1016.51 1016.55 1016.59 1016.55 1016.51 1016.39 1016.27 1016.19 1016.07 1015.99 1016.07 1016.19 1016.11 1015.83 1015.43 1014.87 1014.83 1014.75 1014.79 1014.91 1014.75 1014.39 1014.15 1013.95 1013.59 1013.19 1012.83 1012.47 1012.19 1011.83 1011.55 1011.19 1010.55 1009.99
1004.63 1005.47 1005.91 1005.95 1005.75 1005.59 1006.15 1006.95 1007.95 1009.03 1009.71 1010.15 1010.47 1010.67 1010.67 1010.55 1010.87 1011.47 1011.99 1012.23 1012.47 1012.75 1012.95 1013.27 1013.51 1013.75 1013.95 1014.11 1014.23 1014.51 1014.87 1015.19 1015.51 1015.63 1015.79 1015.91 1016.11 1016.31 1016.35 1016.31 1016.35 1016.31 1016.43 1016.35 1016.19 1016.03 1015.95 1015.87 1015.71 1015.67 1015.79 1016.03 1016.07 1015.83 1015.67 1015.55 1015.11 1014.59 1014.35 1014.51 1014.47 1014.35 1013.91 1013.75 1013.47 1013.11 1012.75 1012.31 1011.87 1011.59 1011.27 1010.75 1010.15 1009.67
1004.47 1004.95 1005.63 1006.03 1006.07 1005.99 1006.15 1006.47 1007.35 1008.31 1009.11 1009.67 1010.07 1010.35 1010.31 1010.35 1010.63 1011.11 1011.59 1012.03 1012.35 1012.55 1012.63 1012.95 1013.23 1013.59 1013.71 1013.79 1014.03 1014.23 1014.59 1014.91 1015.19 1015.31 1015.51 1015.63 1015.83 1016.03 1016.07 1016.07 1016.23 1016.31 1016.35 1016.19 1015.99 1015.71 1015.67 1015.55 1015.47 1015.51 1015.67 1015.75 1015.75 1015.67 1015.55 1015.35 1014.95 1014.55 1014.23 1013.87 1013.95 1014.03 1013.75 1013.63 1013.43 1013.15 1012.67 1012.27 1011.99 1011.55 1010.83 1010.35 1009.75 1009.07
1003.83 1004.79 1005.19 1005.43 1006.03 1006.39 1006.35 1006.39 1006.99 1007.95 1008.79 1009.35 1009.75 1010.03 1009.99 1010.07 1010.47 1010.91 1011.27 1011.67 1011.99 1012.35 1012.51 1012.75 1013.07 1013.23 1013.35 1013.67 1013.91 1014.07 1014.43 1014.67 1014.83 1014.99 1015.23 1015.51 1015.71 1015.87 1015.95 1016.23 1016.19 1016.11 1016.07 1015.91 1015.79 1015.63 1015.47 1015.31 1015.39 1015.59 1015.71 1015.59 1015.47 1015.47 1015.39 1015.07 1014.47 1013.67 1013.43 1013.19 1013.35 1013.55 1013.43 1013.39 1013.27 1013.11 1012.71 1012.31 1011.99 1011.51 1010.91 1010.31 1009.63 1009.07
1003.99 1004.31 1004.47 1004.95 1005.79 1006.39 1006.43 1006.67 1007.31 1008.07 1008.75 1009.19 1009.47 1009.79 1009.95 1010.19 1010.47 1010.87 1011.31 1011.67 1011.79 1011.91 1012.11 1012.43 1012.79 1012.95 1013.19 1013.55 1013.79 1014.07 1014.19 1014.35 1014.55 1014.79 1015.07 1015.27 1015.39 1015.63 1015.95 1015.95 1015.83 1015.75 1015.83 1015.75 1015.59 1015.39 1015.23 1015.19 1015.11 1015.11 1015.03 1015.07 1015.15 1015.19 1014.79 1014.35 1014.03 1013.67 1013.43 1013.19 1012.83 1012.83 1012.99 1012.99 1012.91 1012.79 1012.55 1012.27 1011.99 1011.51 1010.87 1010.15 1009.71 1009.27
1003.91 1004.27 1004.79 1005.51 1006.07 1006.43 1006.51 1006.87 1007.51 1007.95 1008.47 1008.87 1009.27 1009.51 1009.79 1010.15 1010.59 1011.07 1011.03 1011.31 1011.43 1011.59 1011.87 1012.23 1012.47 1012.75 1013.03 1013.35 1013.63 1013.79 1013.87 1014.07 1014.27 1014.59 1014.83 1015.07 1015.15 1015.23 1015.27 1015.39 1015.47 1015.51 1015.59 1015.55 1015.43 1015.35 1015.19 1014.99 1014.83 1014.71 1014.67 1014.67 1014.67 1014.71 1014.55 1014.15 1013.83 1013.55 1013.27 1012.91 1012.75 1012.59 1012.43 1012.35 1012.31 1012.19 1012.03 1011.83 1011.75 1011.55 1011.23 1010.91 1010.59 1010.03
1003.39 1003.91 1004.51 1005.23 1005.95 1006.39 1006.79 1007.15 1007.51 1007.79 1008.19 1008.63 1008.99 1009.27 1009.55 1009.99 1010.43 1010.51 1010.55 1010.79 1011.07 1011.35 1011.63 1011.95 1012.27 1012.59 1012.91 1013.15 1013.43 1013.59 1013.67 1013.75 1014.03 1014.43 1014.67 1014.83 1014.91 1014.95 1015.03 1015.15 1015.35 1015.51 1015.47 1015.43 1015.31 1015.15 1014.95 1014.75 1014.47 1014.39 1014.39 1014.35 1014.23 1014.27 1014.15 1013.91 1013.55 1013.27 1013.11 1012.87 1012.63 1012.43 1012.19 1011.91 1011.67 1011.43 1011.19 1010.99 1010.87 1010.87 1010.79 1010.67 1010.47 1010.07
1003.47 1004.11 1004.75 1005.23 1005.63 1006.19 1006.71 1007.07 1007.35 1007.71 1008.07 1008.39 1008.71 1009.03 1009.39 1009.67 1009.91 1010.11 1010.27 1010.51 1010.79 1011.07 1011.47 1011.71 1012.07 1012.39 1012.67 1012.95 1013.19 1013.35 1013.47 1013.75 1013.99 1014.19 1014.43 1014.55 1014.67 1014.79 1014.91 1015.03 1015.23 1015.31 1015.35 1015.27 1015.27 1015.07 1014.83 1014.55 1014.23 1014.03 1014.03 1013.99 1013.91 1013.95 1013.87 1013.79 1013.59 1013.35 1012.99 1012.79 1012.47 1012.23 1012.07 1011.87 1011.55 1011.11 1010.75 1010.43 1010.23 1010.27 1010.23 1010.15 1009.95 1009.55
Thickness
5759 5757 5754 5752 5751 5750 5749 5747 5746 5743 5741 5739 5736 5734 5731 5724 5718 5715 5713 5714 5718 5721 5721 5720 5720 5720 5719 5717 5716 5714 5713 5712 5710 5709 5707 5706 5704 5702 5700 5699 5697 5694 5693 5691 5689 5686 5685 5683 5682 5681 5679 5678 5677 5676 5676 5676 5676 5677 5677 5677 5678 5678 5678 5678 5679 5679 5679 5680 5681 5681 5682 5682 5683 5684
5759 5756 5754 5752 5750 5749 5747 5745 5745 5742 5740 5738 5736 5734 5733 5729 5722 5717 5712 5713 5717 5719 5719 5721 5720 5718 5718 5716 5714 5713 5711 5710 5708 5706 5705 5703 5701 5699 5697 5695 5693 5692 5690 5688 5686 5684 5682 5681 5679 5678 5677 5676 5675 5674 5673 5672 5673 5672 5673 5674 5675 5675 5675 5676 5675 5676 5676 5677 5677 5678 5679 5680 5681 5681
5759 5756 5753 5751 5749 5748 5747 5745 5743 5742 5740 5737 5736 5733 5731 5729 5725 5721 5715 5711 5716 5718 5716 5719 5720 5719 5716 5715 5713 5712 5710 5707 5705 5704 5702 5701 5699 5697 5694 5693 5690 5688 5687 5685 5683 5681 5680 5678 5676 5675 5674 5673 5672 5671 5670 5669 5669 5668 5669 5669 5670 5671 5672 5672 5673 5673 5673 5674 5674 5675 5676 5677 5678 5679
5760 5756 5753 5751 5749 5748 5746 5744 5743 5741 5740 5738 5736 5733 5731 5728 5726 5723 5717 5710 5712 5718 5718 5717 5719 5718 5715 5713 5712 5710 5709 5707 5704 5702 5701 5698 5696 5695 5693 5691 5688 5685 5683 5682 5680 5679 5677 5675 5674 5672 5671 5670 5669 5668 5666 5665 5664 5664 5664 5664 5665 5665 5666 5667 5668 5669 5670 5671 5672 5672 5673 5674 5675 5676
5760 5757 5754 5752 5751 5750 5747 5745 5743 5741 5740 5738 5736 5734 5731 5729 5726 5723 5718 5712 5711 5715 5718 5716 5716 5716 5713 5711 5711 5709 5708 5707 5704 5701 5699 5697 5695 5692 5691 5688 5685 5683 5680 5679 5677 5675 5674 5672 5671 5670 5668 5667 5665 5664 5662 5662 5660 5659 5659 5659 5659 5660 5661 5662 5663 5665 5666 5667 5668 5669 5670 5670 5672 5672
5761 5758 5755 5753 5752 5752 5749 5746 5744 5742 5740 5738 5735 5733 5730 5728 5726 5725 5720 5715 5712 5711 5714 5714 5713 5714 5711 5708 5708 5707 5706 5705 5703 5700 5697 5695 5692 5689 5687 5685 5683 5680 5678 5676 5674 5672 5670 5669 5667 5666 5664 5663 5662 5660 5658 5657 5656 5655 5654 5653 5653 5654 5655 5656 5657 5658 5660 5662 5664 5665 5666 5667 5667 5668
5763 5759 5757 5755 5755 5753 5749 5747 5745 5743 5740 5737 5733 5732 5730 5728 5726 5725 5721 5717 5713 5710 5710 5711 5710 5710 5708 5706 5706 5705 5703 5702 5700 5696 5694 5691 5688 5685 5683 5682 5680 5678 5675 5674 5672 5669 5667 5665 5664 5662 5661 5659 5657 5656 5654 5653 5652 5651 5650 5649 5649 5649 5649 5650 5651 5652 5654 5655 5657 5659 5661 5662 5663 5664
5765 5762 5759 5758 5757 5755 5750 5746 5745 5743 5740 5738 5735 5732 5731 5729 5726 5725 5722 5718 5714 5711 5708 5708 5708 5707 5706 5704 5703 5702 5700 5698 5696 5694 5690 5687 5683 5681 5680 5679 5677 5675 5672 5671 5668 5666 5664 5661 5660 5658 5656 5655 5653 5651 5650 5649 5648 5647 5646 5646 5645 5644 5644 5645 5645 5646 5647 5649 5650 5653 5654 5656 5658 5659
5768 5765 5763 5762 5760 5756 5751 5747 5746 5743 5740 5738 5736 5733 5732 5729 5727 5725 5722 5719 5716 5712 5708 5707 5707 5706 5704 5702 5701 5699 5695 5693 5692 5689 5686 5683 5680 5678 5677 5676 5673 5671 5669 5667 5665 5662 5660 5658 5656 5654 5652 5651 5648 5648 5647 5645 5644 5642 5642 5641 5641 5641 5640 5640 5640 5640 5641 5643 5644 5645 5647 5649 5651 5652
5770 5768 5766 5765 5763 5758 5753 5750 5748 5746 5743 5739 5737 5735 5732 5730 5727 5724 5721 5718 5715 5712 5710 5708 5705 5703 5701 5699 5696 5696 5693 5689 5686 5684 5681 5680 5678 5675 5673 5671 5669 5666 5664 5664 5662 5659 5656 5654 5652 5649 5648 5646 5644 5643 5643 5641 5640 5639 5638 5637 5637 5636 5637 5636 5636 5636 5636 5637 5638 5640 5641 5642 5644 5645
5772 5771 5769 5767 5765 5761 5757 5754 5752 5749 5745 5741 5737 5734 5732 5730 5727 5723 5720 5717 5714 5711 5709 5708 5705 5703 5701 5698 5695 5693 5691 5686 5682 5679 5676 5675 5675 5673 5670 5667 5664 5662 5660 5659 5658 5655 5651 5649 5647 5645 5643 5641 5640 5639 5638 5637 5637 5636 5635 5634 5633 5632 5632 5632 5631 5631 5631 5631 5632 5634 5635 5636 5637 5639
5773 5772 5772 5770 5768 5764 5761 5758 5755 5751 5746 5741 5737 5734 5732 5729 5726 5723 5720 5716 5713 5711 5708 5706 5705 5703 5699 5696 5693 5690 5686 5681 5679 5677 5673 5670 5670 5668 5666 5663 5660 5657 5656 5655 5654 5651 5648 5646 5644 5642 5639 5637 5636 5634 5634 5634 5633 5633 5631 5630 5629 5628 5627 5626 5626 5626 5626 5626 5627 5628 5630 5631 5632 5633
5774 5773 5773 5773 5770 5767 5764 5760 5756 5752 5748 5744 5739 5735 5733 5729 5725 5722 5719 5716 5712 5709 5707 5704 5703 5700 5697 5693 5690 5686 5683 5679 5676 5675 5671 5668 5666 5664 5662 5660 5657 5653 5651 5651 5651 5649 5645 5643 5640 5638 5636 5633 5631 5631 5631 5631 5630 5629 5627 5625 5624 5622 5621 5621 5620 5621 5621 5622 5623 5624 5625 5626 5627 5628
5774 5774 5774 5774 5770 5767 5763 5759 5755 5752 5748 5746 5743 5739 5734 5730 5725 5721 5718 5715 5711 5708 5705 5703 5701 5697 5694 5692 5689 5685 5683 5680 5676 5673 5669 5665 5664 5661 5656 5655 5654 5651 5648 5646 5645 5644 5641 5638 5636 5634 5633 5629 5628 5628 5628 5626 5625 5623 5621 5620 5619 5617 5617 5615 5615 5615 5616 5617 5618 5619 5620 5621 5622 5623
5774 5774 5774 5772 5770 5766 5763 5759 5755 5752 5748 5746 5743 5739 5735 5731 5727 5723 5718 5714 5711 5708 5705 5703 5700 5696 5692 5691 5689 5685 5683 5680 5675 5671 5667 5663 5660 5656 5651 5648 5648 5647 5644 5641 5639 5638 5637 5633 5631 5630 5628 5625 5624 5624 5623 5620 5618 5617 5615 5614 5613 5612 5611 5610 5610 5610 5610 5611 5612 5614 5614 5615 5616 5618
5774 5773 5771 5771 5770 5766 5763 5760 5756 5752 5748 5745 5742 5738 5735 5731 5727 5725 5720 5716 5712 5709 5705 5701 5698 5694 5691 5689 5687 5684 5681 5677 5673 5669 5665 5660 5656 5652 5648 5644 5643 5643 5641 5637 5633 5633 5633 5629 5626 5626 5624 5622 5621 5620 5618 5615 5612 5611 5610 5609 5607 5607 5606 5605 5605 5605 5605 5605 5606 5607 5608 5609 5610 5612
5776 5774 5771 5769 5768 5766 5762 5759 5756 5752 5748 5744 5741 5737 5733 5729 5726 5723 5720 5717 5713 5710 5705 5700 5697 5695 5691 5687 5684 5682 5678 5673 5669 5666 5662 5658 5653 5648 5645 5643 5641 5639 5636 5632 5629 5628 5628 5626 5623 5622 5621 5619 5617 5615 5613 5610 5608 5606 5605 5603 5602 5601 5600 5600 5600 5600 5600 5600 5600 5600 5601 5603 5604 5605
5777 5775 5772 5769 5767 5765 5762 5759 5756 5752 5747 5743 5739 5736 5732 5728 5724 5720 5716 5713 5711 5708 5705 5700 5696 5694 5691 5686 5683 5680 5676 5670 5666 5662 5658 5654 5650 5646 5644 5641 5638 5636 5632 5629 5626 5623 5624 5624 5620 5618 5617 5616 5613 5611 5608 5606 5603 5601 5599 5598 5596 5595 5594 5594 5594 5594 5595 5595 5596 5596 5597 5597 5599 5600
5779 5777 5774 5771 5767 5765 5762 5759 5756 5752 5748 5743 5739 5735 5731 5727 5723 5718 5715 5712 5709 5706 5704 5701 5697 5694 5690 5686 5681 5678 5674 5669 5665 5660 5656 5652 5648 5643 5641 5638 5635 5633 5630 5627 5622 5619 5620 5620 5616 5613 5613 5612 5609 5607 5604 5601 5599 5596 5594 5592 5591 5589 5588 5587 5587 5588 5588 5589 5589 5591 5592 5593 5594 5596
5781 5779 5776 5772 5768 5765 5762 5759 5755 5751 5748 5743 5737 5732 5729 5726 5722 5718 5714 5710 5707 5704 5702 5699 5696 5691 5687 5683 5679 5675 5671 5667 5663 5659 5654 5649 5645 5640 5636 5633 5632 5631 5629 5625 5620 5616 5615 5615 5611 5609 5609 5608 5605 5603 5600 5597 5594 5591 5589 5587 5585 5584 5583 5582 5582 5582 5582 5583 5584 5585 5586 5587 5589 5591
5782 5780 5777 5773 5769 5765 5762 5758 5752 5749 5746 5741 5736 5731 5728 5724 5721 5716 5711 5707 5703 5700 5698 5694 5690 5686 5682 5678 5674 5670 5666 5662 5659 5655 5649 5646 5643 5637 5631 5628 5628 5627 5626 5624 5618 5613 5610 5610 5608 5606 5605 5603 5600 5599 5597 5594 5590 5587 5584 5582 5581 5580 5579 5578 5578 5578 5579 5579 5580 5581 5581 5583 5584 5585
5782 5780 5777 5774 5770 5766 5763 5757 5751 5747 5744 5740 5735 5731 5727 5722 5718 5714 5710 5705 5699 5696 5692 5688 5684 5680 5677 5674 5670 5666 5662 5658 5655 5651 5646 5643 5640 5633 5628 5626 5624 5623 5622 5620 5615 5609 5607 5607 5604 5602 5601 5599 5597 5595 5593 5589 5586 5583 5581 5579 5578 5576 5576 5575 5575 5576 5576 5576 5577 5577 5578 5578 5579 5581
5781 5779 5775 5772 5769 5767 5762 5756 5751 5747 5743 5739 5736 5732 5726 5721 5717 5714 5710 5704 5698 5693 5689 5684 5680 5677 5673 5670 5666 5662 5658 5654 5651 5648 5644 5641 5636 5630 5627 5625 5621 5617 5617 5616 5611 5605 5603 5602 5600 5598 5596 5594 5593 5592 5588 5585 5582 5579 5577 5577 5575 5574 5573 5573 5573 5573 5573 5574 5574 5574 5575 5575 5575 5577
5778 5776 5775 5771 5768 5764 5760 5756 5751 5747 5743 5739 5736 5733 5727 5721 5717 5715 5709 5703 5698 5692 5687 5682 5678 5675 5672 5668 5665 5660 5656 5652 5648 5645 5641 5638 5633 5628 5624 5622 5618 5614 5614 5613 5608 5602 5600 5598 5596 5594 5592 5589 5589 5588 5585 5582 5578 5575 5574 5574 5573 5572 5571 5571 5572 5572 5572 5572 5572 5572 5573 5572 5572 5573
5777 5774 5773 5771 5766 5761 5758 5754 5750 5746 5742 5740 5737 5734 5729 5724 5720 5714 5707 5701 5695 5689 5684 5680 5676 5673 5669 5666 5663 5659 5656 5652 5648 5643 5638 5635 5632 5627 5622 5619 5616 5612 5612 5610 5604 5599 5596 5593 5592 5591 5589 5587 5586 5584 5581 5578 5576 5574 5572 5571 5571 5570 5570 5569 5570 5570 5570 5571 5571 5570 5570 5570 5569 5570
5776 5773 5771 5769 5764 5760 5756 5752 5749 5745 5741 5738 5736 5734 5729 5723 5717 5712 5705 5698 5692 5686 5682 5679 5674 5670 5667 5663 5660 5657 5654 5651 5646 5641 5636 5632 5628 5625 5620 5616 5612 5609 5607 5606 5601 5596 5593 5591 5589 5588 5586 5584 5582 5580 5577 5575 5574 5573 5570 5568 5567 5567 5567 5567 5568 5568 5568 5569 5569 5568 5568 5568 5568 5569
5774 5770 5768 5766 5761 5755 5752 5748 5744 5740 5737 5735 5734 5731 5727 5720 5714 5709 5703 5695 5689 5685 5681 5676 5671 5668 5665 5661 5658 5654 5651 5647 5642 5638 5634 5629 5624 5621 5617 5614 5610 5607 5605 5602 5599 5595 5591 5588 5586 5584 5582 5580 5578 5575 5573 5572 5571 5570 5569 5566 5565 5564 5564 5565 5565 5565 5565 5564 5565 5566 5566 5566 5567 5567
5772 5768 5766 5762 5756 5751 5747 5742 5738 5734 5731 5731 5729 5726 5722 5717 5712 5706 5700 5693 5688 5683 5678 5674 5669 5665 5663 5660 5656 5652 5648 5643 5639 5634 5630 5626 5622 5618 5614 5612 5608 5605 5603 5600 5597 5594 5590 5586 5584 5582 5579 5577 5574 5572 5570 5569 5568 5567 5565 5564 5563 5562 5561 5561 5561 5562 5561 5560 5561 5562 5563 5564 5565 5565
5771 5766 5762 5757 5752 5746 5740 5735 5730 5727 5725 5724 5723 5721 5718 5714 5709 5704 5697 5691 5686 5681 5676 5673 5668 5664 5661 5658 5654 5650 5644 5639 5634 5630 5627 5623 5619 5616 5612 5609 5606 5604 5602 5599 5596 5592 5588 5584 5582 5580 5578 5575 5573 5570 5567 5566 5564 5563 5561 5560 5560 5561 5560 5558 5558 5558 5557 5556 5558 5558 5558 5560 5560 5561
5766 5762 5757 5752 5746 5740 5734 5729 5724 5720 5718 5717 5717 5715 5713 5711 5708 5702 5696 5689 5684 5680 5676 5672 5668 5664 5661 5656 5651 5645 5640 5635 5632 5628 5624 5621 5617 5614 5610 5606 5604 5603 5601 5598 5595 5591 5586 5583 5581 5578 5576 5574 5572 5568 5565 5562 5561 5560 5558 5557 5558 5559 5558 5557 5555 5553 5552 5552 5553 5554 5555 5555 5555 5555
5760 5755 5751 5747 5741 5734 5729 5725 5721 5714 5709 5708 5710 5710 5709 5708 5705 5701 5695 5689 5684 5680 5676 5672 5668 5663 5659 5653 5647 5641 5636 5633 5630 5626 5622 5618 5615 5612 5608 5603 5601 5601 5600 5597 5594 5589 5585 5582 5580 5578 5576 5573 5570 5567 5563 5559 5558 5557 5556 5556 5555 5554 5555 5554 5552 5551 5548 5546 5547 5549 5551 5552 5552 5552
5754 5749 5744 5738 5733 5728 5724 5720 5714 5707 5702 5702 5705 5704 5703 5701 5698 5695 5691 5686 5682 5678 5675 5670 5666 5660 5655 5650 5644 5640 5635 5632 5628 5624 5619 5616 5612 5609 5605 5601 5599 5599 5597 5595 5592 5588 5584 5581 5579 5577 5575 5572 5568 5565 5561 5558 5556 5554 5554 5554 5552 5551 5551 5550 5548 5548 5545 5542 5541 5544 5546 5548 5549 5550
5747 5741 5737 5731 5727 5724 5721 5716 5707 5702 5699 5699 5699 5698 5696 5694 5692 5689 5685 5681 5679 5675 5671 5667 5663 5657 5653 5648 5643 5638 5634 5630 5626 5622 5617 5613 5610 5606 5602 5600 5598 5597 5594 5592 5589 5586 5583 5581 5578 5577 5575 5572 5568 5564 5559 5556 5555 5553 5551 5550 5548 5547 5547 5545 5543 5542 5541 5538 5538 5540 5542 5544 5546 5547
5741 5736 5730 5726 5725 5723 5719 5712 5704 5699 5697 5696 5694 5692 5691 5689 5688 5686 5682 5679 5677 5673 5668 5665 5661 5656 5651 5646 5641 5636 5633 5629 5624 5619 5615 5611 5607 5604 5601 5600 5599 5596 5594 5591 5588 5585 5582 5579 5577 5576 5575 5573 5569 5565 5560 5556 5554 5552 5549 5546 5544 5543 5543 5541 5540 5538 5535 5534 5534 5536 5539 5542 5543 5543
5735 5733 5728 5723 5722 5722 5718 5711 5703 5698 5695 5693 5691 5688 5687 5687 5686 5684 5680 5677 5674 5670 5666 5663 5659 5655 5650 5645 5640 5635 5631 5627 5622 5618 5613 5609 5605 5603 5601 5600 5598 5596 5593 5591 5589 5586 5582 5579 5577 5575 5574 5571 5569 5566 5562 5557 5552 5548 5546 5543 5541 5540 5539 5538 5537 5534 5533 5533 5532 5533 5536 5540 5542 5542
5730 5728 5726 5722 5721 5721 5717 5710 5703 5698 5693 5690 5688 5685 5684 5685 5685 5682 5678 5675 5671 5667 5664 5660 5656 5652 5648 5644 5639 5634 5629 5625 5621 5617 5612 5608 5605 5602 5601 5599 5597 5594 5592 5590 5588 5586 5582 5579 5577 5574 5571 5568 5564 5562 5560 5556 5550 5545 5543 5541 5539 5538 5537 5536 5535 5533 5532 5532 5532 5531 5532 5536 5540 5542
5725 5722 5720 5720 5721 5721 5717 5710 5703 5696 5691 5688 5686 5684 5683 5685 5684 5681 5676 5671 5668 5665 5662 5658 5655 5651 5646 5642 5636 5632 5627 5623 5619 5615 5612 5608 5604 5601 5600 5598 5596 5594 5591 5590 5588 5585 5582 5579 5577 5573 5569 5564 5560 5557 5556 5555 5550 5544 5541 5539 5538 5537 5536 5534 5533 5533 5532 5531 5531 5529 5530 5533 5537 5540
5720 5717 5714 5715 5718 5718 5716 5710 5701 5693 5688 5686 5684 5682 5682 5683 5681 5677 5671 5667 5664 5662 5659 5656 5652 5649 5644 5639 5634 5629 5625 5621 5617 5614 5610 5606 5603 5600 5599 5598 5596 5593 5591 5589 5587 5585 5582 5579 5577 5574 5568 5562 5557 5554 5553 5552 5548 5545 5541 5537 5535 5535 5534 5532 5532 5532 5531 5531 5531 5530 5529 5530 5533 5537
5716 5711 5708 5709 5711 5713 5712 5709 5702 5692 5686 5683 5680 5678 5678 5680 5677 5672 5667 5664 5662 5659 5656 5653 5650 5645 5641 5637 5632 5627 5623 5618 5615 5611 5608 5605 5602 5600 5598 5597 5595 5591 5589 5587 5586 5585 5583 5580 5577 5574 5568 5561 5556 5552 5549 5547 5546 5544 5542 5537 5533 5532 5531 5530 5529 5529 5528 5529 5529 5529 5530 5531 5533 5535
5710 5704 5701 5701 5701 5702 5705 5706 5701 5692 5684 5680 5676 5674 5675 5676 5673 5668 5664 5661 5658 5655 5653 5650 5647 5643 5639 5634 5629 5625 5621 5616 5613 5610 5607 5604 5601 5599 5597 5596 5593 5590 5587 5586 5585 5584 5582 5580 5578 5573 5567 5561 5556 5551 5547 5545 5545 5545 5544 5540 5535 5531 5528 5526 5524 5524 5525 5526 5525 5527 5528 5531 5533 5534
5704 5702 5701 5699 5694 5694 5698 5699 5695 5687 5680 5676 5673 5671 5671 5672 5669 5665 5661 5658 5654 5652 5650 5647 5644 5640 5636 5630 5626 5622 5618 5615 5612 5609 5605 5602 5600 5597 5595 5593 5591 5588 5586 5584 5584 5583 5581 5579 5576 5571 5566 5561 5556 5551 5548 5546 5546 5547 5545 5542 5538 5533 5528 5525 5522 5520 5521 5522 5522 5523 5525 5527 5530 5531
5697 5698 5699 5696 5689 5687 5690 5690 5686 5679 5674 5671 5669 5667 5667 5665 5662 5659 5656 5654 5652 5650 5648 5644 5641 5637 5632 5626 5622 5618 5616 5613 5610 5607 5603 5601 5599 5597 5594 5592 5590 5588 5585 5583 5582 5582 5580 5578 5575 5571 5567 5563 5557 5552 5549 5548 5548 5547 5544 5542 5539 5536 5530 5526 5522 5519 5518 5518 5516 5517 5519 5519 5520 5522
5694 5695 5694 5689 5683 5681 5681 5681 5677 5673 5670 5667 5665 5663 5662 5659 5656 5654 5652 5651 5649 5647 5644 5642 5638 5634 5629 5623 5619 5616 5614 5612 5608 5605 5601 5600 5598 5596 5594 5593 5590 5587 5584 5582 5581 5580 5578 5577 5576 5572 5568 5564 5559 5554 5551 5549 5547 5546 5544 5542 5540 5537 5533 5529 5525 5521 5519 5517 5514 5512 5511 5509 5507 5507
5692 5691 5689 5685 5680 5677 5674 5671 5669 5667 5665 5662 5661 5659 5658 5654 5652 5651 5651 5649 5647 5644 5641 5639 5634 5630 5625 5621 5616 5614 5611 5609 5606 5603 5600 5598 5596 5595 5593 5591 5588 5585 5583 5581 5579 5578 5577 5577 5576 5573 5569 5564 5560 5555 5551 5549 5547 5546 5544 5541 5539 5538 5536 5534 5530 5527 5524 5521 5518 5515 5512 5508 5504 5502
5685 5682 5680 5679 5675 5671 5667 5665 5663 5662 5660 5659 5658 5656 5653 5651 5649 5648 5648 5646 5643 5641 5638 5635 5631 5627 5623 5618 5614 5612 5609 5606 5603 5600 5598 5596 5595 5593 5591 5589 5586 5583 5582 5579 5577 5576 5576 5575 5575 5573 5570 5565 5561 5556 5552 5549 5546 5544 5542 5541 5539 5537 5535 5533 5532 5531 5529 5527 5524 5520 5516 5512 5510 5507